When you browse on this site, cookies collect data to enhance your experience and personalize the content and advertising you see.
Visit our Privacy Policy to learn more. By continuing to use the site, you agree to this use of cookies and data.
  • In Austria
  • List of Countries
  • For 7 days
  • Water Temperature
  • Satellite Maps
  • Weather Map
  • News
  • Weather Widgets
  • user-avatar
    Login

    Hourly Weather Murfreesboro

    Today, 14 December, Friday

    Time Temperature Precipitation Wind Pressure Humidity
    00:00 +10°C° 0.1 mm 4 mps 746 mmHg 80%
    01:00 +10°C° 0.1 mm 4 mps 745 mmHg 82%
    02:00 +10°C° 0.1 mm 4 mps 745 mmHg 83%
    03:00 +11°C° 0.1 mm 4 mps 745 mmHg 85%
    04:00 +11°C° 0.4 mm 3 mps 744 mmHg 87%
    05:00 +11°C° 0.4 mm 3 mps 744 mmHg 90%
    06:00 +11°C° 0.4 mm 3 mps 744 mmHg 92%
    07:00 +11°C° 0.2 mm 3 mps 744 mmHg 91%
    08:00 +12°C° 0.2 mm 3 mps 744 mmHg 91%
    09:00 +12°C° 0.2 mm 3 mps 743 mmHg 90%
    10:00 +13°C° 0.2 mm 3 mps 743 mmHg 88%
    11:00 +14°C° 0.2 mm 3 mps 743 mmHg 87%
    12:00 +16°C° 0.2 mm 3 mps 742 mmHg 85%
    13:00 +16°C° 0.3 mm 3 mps 742 mmHg 86%
    14:00 +16°C° 0.3 mm 3 mps 741 mmHg 86%
    15:00 +16°C° 0.3 mm 3 mps 741 mmHg 87%
    16:00 +14°C° 0.2 mm 3 mps 741 mmHg 89%
    17:00 +14°C° 0.2 mm 3 mps 741 mmHg 91%
    18:00 +14°C° 0.2 mm 2 mps 741 mmHg 94%
    19:00 +14°C° 0.2 mm 2 mps 741 mmHg 94%
    20:00 +13°C° 0.2 mm 3 mps 740 mmHg 94%
    21:00 +13°C° 0.2 mm 3 mps 740 mmHg 95%
    22:00 +13°C° 0.5 mm 3 mps 740 mmHg 95%
    23:00 +13°C° 0.5 mm 3 mps 740 mmHg 95%

    Tomorrow, 15 December, Saturday

    Time Temperature Precipitation Wind Pressure Humidity
    00:00 +13°C° 0.5 mm 3 mps 740 mmHg 94%
    01:00 +13°C° 0.6 mm 3 mps 740 mmHg 95%
    02:00 +13°C° 0.6 mm 2 mps 740 mmHg 95%
    03:00 +13°C° 0.6 mm 2 mps 740 mmHg 95%
    04:00 +12°C° 0.1 mm 2 mps 740 mmHg 95%
    05:00 +10°C° 0.1 mm 2 mps 740 mmHg 95%
    06:00 +10°C° 0.1 mm 2 mps 740 mmHg 94%
    07:00 +10°C° 0.1 mm 2 mps 740 mmHg 91%
    08:00 +11°C° 0.1 mm 3 mps 741 mmHg 88%
    09:00 +11°C° 0.1 mm 3 mps 741 mmHg 85%
    10:00 +12°C° 0.2 mm 4 mps 741 mmHg 83%
    11:00 +12°C° 0.2 mm 4 mps 741 mmHg 80%
    12:00 +13°C° 0.2 mm 4 mps 741 mmHg 77%
    13:00 +12°C° 0.1 mm 4 mps 741 mmHg 78%
    14:00 +12°C° 0.1 mm 4 mps 741 mmHg 79%
    15:00 +12°C° 0.1 mm 4 mps 742 mmHg 80%
    16:00 +11°C° 0 mm 3 mps 742 mmHg 84%
    17:00 +10°C° 0 mm 2 mps 743 mmHg 88%
    18:00 +10°C° 0 mm 2 mps 744 mmHg 92%
    19:00 +9°C° 0 mm 2 mps 744 mmHg 93%
    20:00 +9°C° 0 mm 2 mps 744 mmHg 94%
    21:00 +9°C° 0 mm 2 mps 745 mmHg 95%
    22:00 +9°C° 0 mm 3 mps 745 mmHg 94%
    23:00 +9°C° 0 mm 3 mps 746 mmHg 93%

    Day after tomorrow, 16 December, Sunday

    Time Temperature Precipitation Wind Pressure Humidity
    00:00 +8°C° 0 mm 4 mps 746 mmHg 92%
    01:00 +9°C° 0 mm 3 mps 746 mmHg 92%
    02:00 +9°C° 0 mm 3 mps 746 mmHg 93%
    03:00 +9°C° 0 mm 3 mps 746 mmHg 93%
    04:00 +8°C° 0.1 mm 3 mps 747 mmHg 92%
    05:00 +8°C° 0.1 mm 3 mps 747 mmHg 92%
    06:00 +8°C° 0.1 mm 3 mps 748 mmHg 91%
    07:00 +8°C° 0 mm 3 mps 748 mmHg 89%
    08:00 +8°C° 0 mm 3 mps 749 mmHg 87%
    09:00 +8°C° 0 mm 3 mps 749 mmHg 84%
    10:00 +8°C° 0 mm 3 mps 749 mmHg 81%
    11:00 +9°C° 0 mm 3 mps 749 mmHg 77%
    12:00 +10°C° 0 mm 2 mps 749 mmHg 73%
    13:00 +12°C° 0 mm 2 mps 749 mmHg 73%
    14:00 +12°C° 0 mm 2 mps 749 mmHg 73%
    15:00 +12°C° 0 mm 2 mps 749 mmHg 73%
    16:00 +10°C° 0 mm 2 mps 749 mmHg 78%
    17:00 +9°C° 0 mm 2 mps 750 mmHg 83%
    18:00 +8°C° 0 mm 1 mps 750 mmHg 88%
    19:00 +8°C° 0 mm 1 mps 750 mmHg 88%
    20:00 +7°C° 0 mm 1 mps 751 mmHg 89%
    21:00 +7°C° 0 mm 1 mps 751 mmHg 89%
    22:00 +6°C° 0 mm 1 mps 751 mmHg 88%
    23:00 +6°C° 0 mm 1 mps 751 mmHg 88%

    17 December, Monday

    Time Temperature Precipitation Wind Pressure Humidity
    00:00 +5°C° 0 mm 1 mps 751 mmHg 88%
    01:00 +5°C° 0 mm 1 mps 751 mmHg 88%
    02:00 +4°C° 0 mm 1 mps 750 mmHg 88%
    03:00 +4°C° 0 mm 1 mps 750 mmHg 88%
    04:00 +4°C° 0 mm 1 mps 750 mmHg 88%
    05:00 +4°C° 0 mm 1 mps 751 mmHg 89%
    06:00 +3°C° 0 mm 1 mps 751 mmHg 89%
    07:00 +4°C° 0 mm 1 mps 751 mmHg 84%
    08:00 +6°C° 0 mm 1 mps 751 mmHg 79%
    09:00 +7°C° 0 mm 1 mps 752 mmHg 74%
    10:00 +8°C° 0 mm 1 mps 751 mmHg 66%
    11:00 +9°C° 0 mm 2 mps 751 mmHg 59%
    12:00 +10°C° 0 mm 2 mps 751 mmHg 52%
    13:00 +10°C° 0 mm 2 mps 750 mmHg 52%
    14:00 +12°C° 0 mm 2 mps 750 mmHg 52%
    15:00 +12°C° 0 mm 2 mps 750 mmHg 52%
    16:00 +9°C° 0 mm 2 mps 750 mmHg 57%
    17:00 +7°C° 0 mm 2 mps 750 mmHg 62%
    18:00 +6°C° 0 mm 1 mps 751 mmHg 68%
    19:00 +6°C° 0 mm 1 mps 751 mmHg 70%
    20:00 +5°C° 0 mm 1 mps 751 mmHg 71%
    21:00 +5°C° 0 mm 1 mps 751 mmHg 73%
    22:00 +4°C° 0 mm 1 mps 751 mmHg 75%
    23:00 +4°C° 0 mm 1 mps 751 mmHg 76%

    18 December, Tuesday

    Time Temperature Precipitation Wind Pressure Humidity
    00:00 +4°C° 0 mm 1 mps 751 mmHg 78%
    01:00 +3°C° 0 mm 1 mps 751 mmHg 79%
    02:00 +3°C° 0 mm 1 mps 751 mmHg 80%
    03:00 +2°C° 0 mm 1 mps 751 mmHg 81%
    04:00 +2°C° 0 mm 1 mps 751 mmHg 81%
    05:00 +1°C° 0 mm 2 mps 751 mmHg 81%
    06:00 +1°C° 0 mm 2 mps 752 mmHg 81%
    07:00 +2°C° 0 mm 2 mps 752 mmHg 75%
    08:00 +3°C° 0 mm 2 mps 752 mmHg 69%
    09:00 +4°C° 0 mm 2 mps 752 mmHg 63%
    10:00 +5°C° 0 mm 2 mps 752 mmHg 57%
    11:00 +7°C° 0 mm 2 mps 752 mmHg 51%
    12:00 +8°C° 0 mm 2 mps 751 mmHg 45%
    13:00 +8°C° 0 mm 2 mps 751 mmHg 46%
    14:00 +8°C° 0 mm 2 mps 751 mmHg 47%
    15:00 +9°C° 0 mm 2 mps 750 mmHg 48%
    16:00 +7°C° 0 mm 2 mps 751 mmHg 53%
    17:00 +5°C° 0 mm 2 mps 751 mmHg 58%
    18:00 +4°C° 0 mm 2 mps 751 mmHg 63%
    19:00 +3°C° 0 mm 2 mps 751 mmHg 64%
    20:00 +3°C° 0 mm 2 mps 752 mmHg 65%
    21:00 +2°C° 0 mm 2 mps 752 mmHg 66%
    22:00 +3°C° 0 mm 1 mps 752 mmHg 67%
    23:00 +3°C° 0 mm 1 mps 751 mmHg 67%

    19 December, Wednesday

    Time Temperature Precipitation Wind Pressure Humidity
    00:00 +3°C° 0 mm 1 mps 751 mmHg 67%
    01:00 +2°C° 0 mm 1 mps 751 mmHg 67%
    02:00 +2°C° 0 mm 1 mps 751 mmHg 67%
    03:00 +2°C° 0 mm 1 mps 751 mmHg 66%
    04:00 +2°C° 0 mm 1 mps 751 mmHg 66%
    05:00 +1°C° 0 mm 0 mps 751 mmHg 65%
    06:00 +1°C° 0 mm 0 mps 751 mmHg 64%
    07:00 +2°C° 0 mm 0 mps 752 mmHg 59%
    08:00 +4°C° 0 mm 0 mps 752 mmHg 55%
    09:00 +6°C° 0 mm 0 mps 752 mmHg 50%
    10:00 +8°C° 0 mm 0 mps 751 mmHg 46%
    11:00 +11°C° 0 mm 1 mps 751 mmHg 43%
    12:00 +12°C° 0 mm 1 mps 751 mmHg 39%
    13:00 +13°C° 0 mm 1 mps 750 mmHg 42%
    14:00 +13°C° 0 mm 1 mps 750 mmHg 45%
    15:00 +13°C° 0 mm 1 mps 749 mmHg 48%
    16:00 +11°C° 0 mm 1 mps 749 mmHg 53%
    17:00 +9°C° 0 mm 1 mps 749 mmHg 58%
    18:00 +8°C° 0 mm 1 mps 749 mmHg 63%
    19:00 +7°C° 0 mm 2 mps 749 mmHg 64%
    20:00 +6°C° 0 mm 2 mps 749 mmHg 66%
    21:00 +6°C° 0 mm 2 mps 749 mmHg 67%
    22:00 +6°C° 0 mm 2 mps 748 mmHg 68%
    23:00 +5°C° 0 mm 2 mps 748 mmHg 69%
    Show more